Stanley, ID

12:45 AM MDT on March 23, 2017 (GMT -0600)
Stanley

Weather History for KSNT - April, 2013

Change the Weather History Date:

Tuesday, April 9, 2013

  Actual Average Record
Temperature  
Mean Temperature 31 °F 32 °F  
Max Temperature 45 °F 45 °F 67 °F (1996)
Min Temperature 16 °F 18 °F -4 °F (2010)
Degree Days  
Heating Degree Days 34 33  
Month to date heating degree days 260 308  
Since 1 July heating degree days 8544 9026  
Cooling Degree Days 0 0  
Month to date cooling degree days 0 0  
Year to date cooling degree days 0 0  
Moisture  
Dew Point 13 °F    
Average Humidity 51    
Maximum Humidity 80    
Minimum Humidity 22    
Precipitation  
Precipitation 0.00 in 0.05 in 0.70 in (1992)
Month to date precipitation 0.75 0.57  
Year to date precipitation 3.58 5.69  
Sea Level Pressure  
Sea Level Pressure 30.03 in    
Wind  
Wind Speed 5 mph (NW)    
Max Wind Speed 15 mph    
Max Gust Speed 23 mph    
T = Trace of Precipitation, MM = Missing Value Source: NWS Daily Summary

Daily Weather History Graph

Daily Weather History Graph

Search for Another Location

Airport or City:

Trip Planner

Search our weather history database for the weather conditions in past years. The results will help you decide how hot, cold, wet, or windy it might be!

Date:

Astronomy

Apr. 09, 2013 Rise Set
Actual Time 7:06 AM MDT 8:17 PM MDT
Civil Twilight 6:36 AM MDT 8:46 PM MDT
Nautical Twilight 6:00 AM MDT 9:22 PM MDT
Astronomical Twilight 5:23 AM MDT 10:00 PM MDT
Moon 6:31 AM MDT (4/9) 7:57 PM MDT (4/9)
Length of Visible Light 14h 10m
Length of Day
13h 11m
Waning Crescent, 0% of the Moon is Illuminated
Apr 9
Waning Crescent
Apr 10
New
Apr 18
First Quarter
Apr 25
Full
May 2
Last Quarter

Hourly Weather History & Observations

Time (MDT) Temp. Windchill Dew Point Humidity Pressure Visibility Wind Dir Wind Speed Gust Speed Precip Events Conditions
12:51 AM 27.0 °F 18.7 °F 14.0 °F 58% 29.88 in - NW 8.1 mph - N/A   Unknown
1:51 AM 24.1 °F 19.7 °F 15.1 °F 69% 29.90 in - NNE 3.5 mph - N/A   Unknown
2:51 AM 21.0 °F - 15.1 °F 78% 29.93 in - Calm Calm - N/A   Unknown
3:51 AM 19.0 °F 13.9 °F 14.0 °F 81% 29.93 in - North 3.5 mph - N/A   Unknown
4:51 AM 19.0 °F - 12.9 °F 77% 29.97 in - Calm Calm - N/A   Unknown
5:51 AM 17.1 °F - 12.0 °F 81% 30.00 in - Calm Calm - N/A   Unknown
6:51 AM 18.0 °F 12.7 °F 12.9 °F 81% 30.03 in - NW 3.5 mph - N/A   Unknown
7:51 AM 18.0 °F 12.7 °F 12.0 °F 78% 30.06 in - WNW 3.5 mph - N/A   Unknown
8:51 AM 23.0 °F 17.0 °F 14.0 °F 68% 30.06 in - NNW 4.6 mph - N/A   Unknown
9:51 AM 27.0 °F 21.6 °F 14.0 °F 58% 30.06 in - NNW 4.6 mph - N/A   Unknown
10:51 AM 30.9 °F 25.2 °F 12.0 °F 46% 30.06 in - WNW 5.8 mph - N/A   Unknown
11:51 AM 35.1 °F 27.4 °F 12.9 °F 40% 30.04 in - WNW 10.4 mph - N/A   Unknown
12:51 PM 37.9 °F 34.4 °F 12.0 °F 35% 30.02 in - Variable 4.6 mph - N/A   Unknown
1:51 PM 42.1 °F 35.7 °F 12.0 °F 29% 30.00 in - NW 11.5 mph 18.4 mph N/A   Unknown
2:51 PM 44.1 °F 39.0 °F 10.9 °F 26% 30.01 in - NNW 9.2 mph 17.3 mph N/A   Unknown
3:51 PM 45.0 °F 40.6 °F 10.9 °F 25% 30.03 in - NW 8.1 mph 19.6 mph N/A   Unknown
4:51 PM 44.1 °F 38.6 °F 9.0 °F 24% 30.02 in - WNW 10.4 mph - N/A   Unknown
5:51 PM 45.0 °F 40.1 °F 10.0 °F 24% 30.04 in - NNW 9.2 mph 16.1 mph N/A   Unknown
6:51 PM 43.0 °F 37.2 °F 7.0 °F 23% 30.05 in - NW 10.4 mph 18.4 mph N/A   Unknown
7:51 PM 37.9 °F 33.5 °F 12.0 °F 35% 30.09 in - NW 5.8 mph - N/A   Unknown
8:51 PM 30.0 °F - 12.9 °F 49% 30.12 in - Calm Calm - N/A   Unknown
9:51 PM 27.0 °F - 15.1 °F 61% 30.15 in - Calm Calm - N/A   Unknown
10:51 PM 25.0 °F 20.7 °F 16.0 °F 69% 30.17 in - SSE 3.5 mph - N/A   Unknown
11:51 PM 23.0 °F - 16.0 °F 74% 30.16 in - Calm Calm - N/A   Unknown